Wilmington, OH

5:18 AM EDT on March 23, 2017 (GMT -0400)
Airborne

Weather History for KILN - October, 2012

Change the Weather History Date:

Wednesday, October 10, 2012

  Actual Average (KFFO) Record (KFFO)
Temperature  
Mean Temperature 46 °F -  
Max Temperature 55 °F 65 °F 86 °F (2010)
Min Temperature 36 °F 42 °F 34 °F (2012)
Degree Days  
Heating Degree Days 19    
Moisture  
Dew Point 37 °F    
Average Humidity 71    
Maximum Humidity 93    
Minimum Humidity 41    
Precipitation  
Precipitation 0.00 in - - ()
Sea Level Pressure  
Sea Level Pressure 30.08 in    
Wind  
Wind Speed 10 mph (WSW)    
Max Wind Speed 21 mph    
Max Gust Speed 28 mph    
Visibility 10 miles    
Events Rain    
Averages and records for this station are not official NWS values.
T = Trace of Precipitation, MM = Missing Value Source: NWS Daily Summary

Daily Weather History Graph

Daily Weather History Graph

Search for Another Location

Airport or City:

Trip Planner

Search our weather history database for the weather conditions in past years. The results will help you decide how hot, cold, wet, or windy it might be!

Date:

Astronomy

Oct. 10, 2012 Rise Set
Actual Time 7:40 AM EDT 7:02 PM EDT
Civil Twilight 7:13 AM EDT 7:29 PM EDT
Nautical Twilight 6:42 AM EDT 8:00 PM EDT
Astronomical Twilight 6:11 AM EDT 8:31 PM EDT
Moon 2:17 AM EDT (10/10) 4:03 PM EDT (10/10)
Length of Visible Light 12h 16m
Length of Day
11h 22m
Waning Crescent, 27% of the Moon is Illuminated
Oct 10
Waning Crescent
Oct 15
New
Oct 21
First Quarter
Oct 29
Full
Nov 6
Last Quarter

Hourly Weather History & Observations

Time (EDT) Temp. Windchill Dew Point Humidity Pressure Visibility Wind Dir Wind Speed Gust Speed Precip Events Conditions
12:54 AM 43.0 °F 38.2 °F 37.9 °F 82% 30.00 in 10.0 mi SSW 8.1 mph - N/A   Clear
1:54 AM 44.1 °F 39.0 °F 41.0 °F 89% 29.99 in 10.0 mi South 9.2 mph - N/A   Clear
2:54 AM 45.0 °F 40.6 °F 42.1 °F 90% 29.98 in 10.0 mi SSW 8.1 mph - N/A   Clear
3:54 AM 44.1 °F 39.5 °F 42.1 °F 93% 29.96 in 10.0 mi SSW 8.1 mph - N/A   Clear
4:54 AM 46.0 °F 41.4 °F 43.0 °F 89% 29.95 in 10.0 mi SSW 9.2 mph - N/A   Partly Cloudy
5:54 AM 46.0 °F 43.1 °F 43.0 °F 89% 29.95 in 10.0 mi SSW 5.8 mph - N/A   Mostly Cloudy
6:54 AM 44.1 °F 40.1 °F 41.0 °F 89% 29.97 in 10.0 mi SW 6.9 mph - N/A   Clear
7:54 AM 48.0 °F - 43.0 °F 83% 29.99 in 10.0 mi WSW 11.5 mph - N/A   Overcast
8:43 AM 48.2 °F - 44.6 °F 87% 29.98 in 10.0 mi West 10.4 mph - 0.00 in   Overcast
8:54 AM 48.0 °F - 44.1 °F 86% 30.02 in 10.0 mi West 10.4 mph - 0.00 in Rain Light Rain
9:37 AM 48.2 °F - 44.6 °F 87% 30.00 in 10.0 mi West 9.2 mph - 0.00 in   Overcast
9:54 AM 48.0 °F - 44.1 °F 86% 30.05 in 10.0 mi West 8.1 mph - 0.00 in   Overcast
10:23 AM 50.0 °F - 44.6 °F 82% 30.02 in 10.0 mi West 12.7 mph - N/A   Overcast
10:54 AM 48.9 °F - 42.1 °F 77% 30.07 in 10.0 mi NW 13.8 mph - N/A   Overcast
11:54 AM 48.9 °F - 37.0 °F 64% 30.09 in 10.0 mi WNW 15.0 mph - N/A   Mostly Cloudy
12:02 PM 51.8 °F - 37.4 °F 58% 30.05 in 10.0 mi West 18.4 mph 24.2 mph N/A   Mostly Cloudy
12:54 PM 54.0 °F - 37.0 °F 53% 30.10 in 10.0 mi WNW 13.8 mph 21.9 mph N/A   Scattered Clouds
1:54 PM 55.0 °F - 35.1 °F 47% 30.09 in 10.0 mi West 16.1 mph - N/A   Scattered Clouds
2:54 PM 55.0 °F - 34.0 °F 45% 30.08 in 10.0 mi West 18.4 mph 24.2 mph N/A   Partly Cloudy
3:54 PM 53.1 °F - 32.0 °F 45% 30.10 in 10.0 mi West 16.1 mph 26.5 mph N/A   Scattered Clouds
4:54 PM 54.0 °F - 30.9 °F 41% 30.12 in 10.0 mi West 20.7 mph 27.6 mph N/A   Scattered Clouds
5:54 PM 51.1 °F - 32.0 °F 48% 30.15 in 10.0 mi WNW 13.8 mph - N/A   Partly Cloudy
6:54 PM 48.0 °F - 30.0 °F 50% 30.18 in 10.0 mi West 8.1 mph 18.4 mph N/A   Clear
7:54 PM 46.0 °F 42.5 °F 28.9 °F 51% 30.21 in 10.0 mi West 6.9 mph - N/A   Clear
8:54 PM 44.1 °F 40.8 °F 28.9 °F 55% 30.24 in 10.0 mi WNW 5.8 mph - N/A   Clear
9:54 PM 37.9 °F 35.5 °F 30.0 °F 73% 30.27 in 10.0 mi SSW 3.5 mph - N/A   Clear
10:54 PM 37.9 °F 35.5 °F 30.0 °F 73% 30.27 in 10.0 mi SW 3.5 mph - N/A   Clear
11:54 PM 36.0 °F 33.3 °F 28.9 °F 76% 30.28 in 10.0 mi West 3.5 mph - N/A   Clear